When you browse on this site, cookies collect data to enhance your experience and personalize the content and advertising you see.
Visit our Privacy Policy to learn more. By continuing to use the site, you agree to this use of cookies and data.
  • In Österreich
  • Länderverzeichnis
  • Für 7 Tage
  • Wassertemperatur
  • Wetterkarte
  • News
  • Widgets
  • user-avatar
    Anmelden

    Stündliche Wetter Zorya

    Heute, 27 Januar, Montag

    Zeit Temperatur Niederschläge Wind Luftdruck Luftfeuchtigkeit
    00:00 -1°C° 0 mm 2 m/S 764 mmHg 82%
    01:00 -1°C° 0 mm 2 m/S 763 mmHg 82%
    02:00 -1°C° 0 mm 2 m/S 763 mmHg 83%
    03:00 -1°C° 0 mm 2 m/S 763 mmHg 84%
    04:00 -1°C° 0 mm 2 m/S 763 mmHg 85%
    05:00 -1°C° 0 mm 2 m/S 762 mmHg 86%
    06:00 -1°C° 0 mm 2 m/S 763 mmHg 85%
    07:00 -1°C° 0 mm 2 m/S 763 mmHg 85%
    08:00 -1°C° 0 mm 2 m/S 763 mmHg 84%
    09:00 +2°C° 0 mm 2 m/S 763 mmHg 78%
    10:00 +3°C° 0 mm 2 m/S 762 mmHg 72%
    11:00 +4°C° 0 mm 2 m/S 762 mmHg 66%
    12:00 +5°C° 0 mm 2 m/S 762 mmHg 65%
    13:00 +5°C° 0 mm 2 m/S 761 mmHg 64%
    14:00 +6°C° 0 mm 1 m/S 761 mmHg 63%
    15:00 +6°C° 0 mm 1 m/S 761 mmHg 67%
    16:00 +5°C° 0 mm 1 m/S 760 mmHg 70%
    17:00 +3°C° 0 mm 2 m/S 760 mmHg 74%
    18:00 +3°C° 0 mm 2 m/S 760 mmHg 76%
    19:00 +3°C° 0 mm 2 m/S 760 mmHg 79%
    20:00 +2°C° 0 mm 2 m/S 760 mmHg 81%
    21:00 +2°C° 0 mm 2 m/S 760 mmHg 83%
    22:00 +2°C° 0 mm 2 m/S 760 mmHg 85%
    23:00 +2°C° 0 mm 2 m/S 759 mmHg 88%

    Morgen, 28 Januar, Dienstag

    Zeit Temperatur Niederschläge Wind Luftdruck Luftfeuchtigkeit
    00:00 +2°C° 0 mm 2 m/S 759 mmHg 88%
    01:00 +1°C° 0 mm 2 m/S 759 mmHg 89%
    02:00 +1°C° 0 mm 2 m/S 759 mmHg 90%
    03:00 +1°C° 0 mm 2 m/S 758 mmHg 90%
    04:00 +1°C° 0 mm 2 m/S 758 mmHg 90%
    05:00 +1°C° 0 mm 2 m/S 757 mmHg 90%
    06:00 +1°C° 0 mm 2 m/S 757 mmHg 90%
    07:00 +1°C° 0 mm 2 m/S 757 mmHg 90%
    08:00 +1°C° 0 mm 2 m/S 757 mmHg 91%
    09:00 +2°C° 0 mm 2 m/S 757 mmHg 86%
    10:00 +4°C° 0 mm 2 m/S 757 mmHg 81%
    11:00 +4°C° 0 mm 3 m/S 757 mmHg 76%
    12:00 +4°C° 0 mm 3 m/S 756 mmHg 75%
    13:00 +5°C° 0 mm 3 m/S 756 mmHg 74%
    14:00 +5°C° 0 mm 3 m/S 755 mmHg 73%
    15:00 +5°C° 0 mm 3 m/S 755 mmHg 77%
    16:00 +5°C° 0 mm 3 m/S 754 mmHg 80%
    17:00 +5°C° 0 mm 3 m/S 754 mmHg 83%
    18:00 +4°C° 0.1 mm 4 m/S 754 mmHg 83%
    19:00 +4°C° 0.1 mm 4 m/S 754 mmHg 84%
    20:00 +3°C° 0.1 mm 5 m/S 754 mmHg 84%
    21:00 +3°C° 0.6 mm 5 m/S 753 mmHg 85%
    22:00 +4°C° 0.6 mm 4 m/S 753 mmHg 87%
    23:00 +3°C° 0.6 mm 4 m/S 753 mmHg 88%

    übermorgen, 29 Januar, Mittwoch

    Zeit Temperatur Niederschläge Wind Luftdruck Luftfeuchtigkeit
    00:00 +4°C° 0.6 mm 4 m/S 752 mmHg 91%
    01:00 +4°C° 0.6 mm 4 m/S 752 mmHg 93%
    02:00 +4°C° 0.6 mm 4 m/S 751 mmHg 95%
    03:00 +3°C° 0.2 mm 5 m/S 751 mmHg 96%
    04:00 +3°C° 0.2 mm 5 m/S 750 mmHg 96%
    05:00 +3°C° 0.2 mm 5 m/S 750 mmHg 97%
    06:00 +5°C° 0.1 mm 5 m/S 750 mmHg 97%
    07:00 +5°C° 0.1 mm 5 m/S 750 mmHg 96%
    08:00 +5°C° 0.1 mm 5 m/S 750 mmHg 96%
    09:00 +5°C° 0 mm 5 m/S 749 mmHg 90%
    10:00 +5°C° 0 mm 6 m/S 749 mmHg 85%
    11:00 +7°C° 0 mm 6 m/S 749 mmHg 80%
    12:00 +7°C° 0 mm 6 m/S 748 mmHg 77%
    13:00 +7°C° 0 mm 6 m/S 748 mmHg 74%
    14:00 +8°C° 0 mm 7 m/S 747 mmHg 72%
    15:00 +8°C° 0.1 mm 7 m/S 747 mmHg 74%
    16:00 +6°C° 0.1 mm 8 m/S 747 mmHg 77%
    17:00 +6°C° 0.1 mm 8 m/S 746 mmHg 79%
    18:00 +5°C° 0.6 mm 9 m/S 747 mmHg 82%
    19:00 +3°C° 0.6 mm 9 m/S 747 mmHg 85%
    20:00 +3°C° 0.6 mm 10 m/S 747 mmHg 88%
    21:00 +2°C° 0.1 mm 9 m/S 748 mmHg 83%
    22:00 +1°C° 0.1 mm 9 m/S 748 mmHg 77%
    23:00 +1°C° 0.1 mm 8 m/S 749 mmHg 72%

    30 Januar, Donnerstag

    Zeit Temperatur Niederschläge Wind Luftdruck Luftfeuchtigkeit
    00:00 0°C° 0 mm 8 m/S 750 mmHg 71%
    01:00 0°C° 0 mm 8 m/S 751 mmHg 69%
    02:00 0°C° 0 mm 8 m/S 751 mmHg 68%
    03:00 -1°C° 0 mm 7 m/S 751 mmHg 71%
    04:00 -1°C° 0 mm 6 m/S 751 mmHg 74%
    05:00 0°C° 0 mm 5 m/S 751 mmHg 77%
    06:00 0°C° 0 mm 5 m/S 752 mmHg 76%
    07:00 0°C° 0 mm 5 m/S 752 mmHg 76%
    08:00 -1°C° 0 mm 5 m/S 752 mmHg 75%
    09:00 +1°C° 0 mm 6 m/S 752 mmHg 67%
    10:00 +2°C° 0 mm 6 m/S 752 mmHg 59%
    11:00 +4°C° 0 mm 7 m/S 752 mmHg 51%
    12:00 +4°C° 0 mm 7 m/S 752 mmHg 48%
    13:00 +5°C° 0 mm 7 m/S 752 mmHg 45%
    14:00 +5°C° 0 mm 6 m/S 751 mmHg 43%
    15:00 +4°C° 0 mm 6 m/S 751 mmHg 47%
    16:00 +3°C° 0 mm 5 m/S 751 mmHg 51%
    17:00 +3°C° 0 mm 4 m/S 751 mmHg 55%
    18:00 +3°C° 0 mm 4 m/S 752 mmHg 57%
    19:00 +1°C° 0 mm 4 m/S 752 mmHg 58%
    20:00 +1°C° 0 mm 4 m/S 752 mmHg 60%
    21:00 +1°C° 0 mm 4 m/S 752 mmHg 63%
    22:00 0°C° 0 mm 4 m/S 752 mmHg 67%
    23:00 0°C° 0 mm 4 m/S 752 mmHg 70%

    31 Januar, Freitag

    Zeit Temperatur Niederschläge Wind Luftdruck Luftfeuchtigkeit
    00:00 -1°C° 0 mm 4 m/S 752 mmHg 75%
    01:00 -1°C° 0 mm 4 m/S 752 mmHg 79%
    02:00 -2°C° 0 mm 4 m/S 752 mmHg 84%
    03:00 -2°C° 0 mm 4 m/S 752 mmHg 86%
    04:00 -2°C° 0 mm 4 m/S 753 mmHg 87%
    05:00 -2°C° 0 mm 4 m/S 753 mmHg 89%
    06:00 -1°C° 0 mm 4 m/S 753 mmHg 85%
    07:00 -1°C° 0 mm 4 m/S 754 mmHg 82%
    08:00 -1°C° 0 mm 4 m/S 754 mmHg 78%
    09:00 0°C° 0 mm 4 m/S 754 mmHg 76%
    10:00 0°C° 0 mm 4 m/S 754 mmHg 73%
    11:00 +1°C° 0 mm 4 m/S 755 mmHg 70%
    12:00 +1°C° 0 mm 4 m/S 755 mmHg 70%
    13:00 +1°C° 0 mm 5 m/S 754 mmHg 69%
    14:00 +1°C° 0 mm 5 m/S 754 mmHg 69%
    15:00 +1°C° 0 mm 4 m/S 755 mmHg 70%
    16:00 +1°C° 0 mm 4 m/S 755 mmHg 71%
    17:00 +2°C° 0 mm 3 m/S 755 mmHg 72%
    18:00 +2°C° 0 mm 2 m/S 755 mmHg 73%
    19:00 +2°C° 0 mm 2 m/S 755 mmHg 73%
    20:00 +2°C° 0 mm 2 m/S 756 mmHg 74%
    21:00 +2°C° 0 mm 2 m/S 756 mmHg 74%
    22:00 +2°C° 0 mm 2 m/S 756 mmHg 74%
    23:00 +2°C° 0 mm 2 m/S 756 mmHg 74%

    1 Februar, Samstag

    Zeit Temperatur Niederschläge Wind Luftdruck Luftfeuchtigkeit
    00:00 +2°C° 0 mm 2 m/S 756 mmHg 81%
    01:00 +1°C° 0 mm 2 m/S 756 mmHg 87%
    02:00 0°C° 0 mm 3 m/S 756 mmHg 93%
    03:00 +1°C° 0 mm 2 m/S 756 mmHg 90%
    04:00 +1°C° 0 mm 2 m/S 756 mmHg 88%
    05:00 +1°C° 0 mm 2 m/S 756 mmHg 85%
    06:00 0°C° 0 mm 3 m/S 756 mmHg 83%
    07:00 0°C° 0 mm 3 m/S 757 mmHg 81%
    08:00 0°C° 0 mm 3 m/S 757 mmHg 78%
    09:00 +1°C° 0 mm 3 m/S 757 mmHg 74%
    10:00 +2°C° 0 mm 3 m/S 757 mmHg 70%
    11:00 +3°C° 0 mm 3 m/S 757 mmHg 66%
    12:00 +4°C° 0 mm 3 m/S 757 mmHg 63%
    13:00 +5°C° 0 mm 3 m/S 757 mmHg 59%
    14:00 +6°C° 0 mm 2 m/S 757 mmHg 55%
    15:00 +5°C° 0 mm 2 m/S 757 mmHg 58%
    16:00 +6°C° 0 mm 1 m/S 757 mmHg 61%
    17:00 +5°C° 0 mm 1 m/S 757 mmHg 64%
    18:00 +5°C° 0 mm 1 m/S 757 mmHg 65%
    19:00 +4°C° 0 mm 2 m/S 757 mmHg 66%
    20:00 +3°C° 0 mm 2 m/S 757 mmHg 67%
    21:00 +3°C° 0 mm 2 m/S 757 mmHg 69%
    22:00 +3°C° 0 mm 2 m/S 757 mmHg 70%
    23:00 +3°C° 0 mm 2 m/S 757 mmHg 71%
    Mehr zeigen